Weather History for Resolute CS, NT

Change the Weather History Date:

Wednesday, November 28, 2012

  Actual Average Record
Temperature  
Mean Temperature -8 °F -  
Max Temperature 2 °F - - ()
Min Temperature -13 °F - - ()
Degree Days  
Heating Degree Days 73    
Moisture  
Dew Point -9 °F    
Average Humidity 82    
Maximum Humidity 86    
Minimum Humidity 71    
Precipitation  
Precipitation 0.00 in - - ()
Sea Level Pressure  
Sea Level Pressure 29.81 in    
Wind  
Wind Speed 8 mph ()    
Max Wind Speed 17 mph    
Max Gust Speed -    
T = Trace of Precipitation, MM = Missing Value Source: Averaged Metar Reports

Daily Weather History Graph

Daily Weather History Graph

Search for Another Location

Airport:

Trip Planner

Search our weather history database for the weather conditions in past years. The results will help you decide how hot, cold, wet, or windy it might be!

Date:

Astronomy

Dec. 31, 1969 Rise Set
Actual Time Sun does not rise Sun does not rise
Civil Twilight 10:35 AM MST 11:40 AM MST
Nautical Twilight 7:32 AM MST 2:42 PM MST
Astronomical Twilight 5:48 AM MST 4:26 PM MST
Moon No Moon Rise No Moon Set
Length of Visible Light 1h 04m
Length of Day
0h 00m
Full, 100% of the Moon is Illuminated
Nov 28
Full
Dec 6
Last Quarter
Dec 13
New
Dec 19
First Quarter
Dec 28
Full

Hourly Weather History & Observations

Time (MST) Temp. Windchill Dew Point Humidity Pressure Visibility Wind Dir Wind Speed Gust Speed Precip Events Conditions
12:00 AM 2.3 °F -13.4 °F -1.5 °F 84% 29.63 in - SE 10.4 mph - N/A   Unknown
1:00 AM 1.8 °F -15.7 °F -1.8 °F 85% 29.65 in - ESE 12.7 mph - N/A   Unknown
2:00 AM 2.1 °F -16.0 °F -1.3 °F 86% 29.68 in - SE 13.8 mph - N/A   Unknown
3:00 AM -2.2 °F -22.2 °F -5.8 °F 85% 29.70 in - SE 15.0 mph - N/A   Unknown
4:00 AM -3.5 °F -25.1 °F -7.1 °F 85% 29.73 in - SE 17.3 mph - N/A   Unknown
5:00 AM -4 °F - -8 °F 71% 29.75 in - SE 12.7 mph - -  
5:00 AM -4.4 °F -23.4 °F -8.5 °F 82% 29.75 in - SE 12.7 mph - N/A   Unknown
6:00 AM -4.5 °F -23.6 °F -8.5 °F 83% 29.77 in - ESE 12.7 mph - N/A   Unknown
7:00 AM -4.0 °F -19.0 °F -8.5 °F 81% 29.80 in - SE 8.1 mph - N/A   Unknown
8:00 AM -4.2 °F -14.8 °F -8.5 °F 82% 29.82 in - SE 4.6 mph - N/A   Unknown
9:00 AM -4.7 °F -23.9 °F -8.5 °F 84% 29.83 in - ESE 12.7 mph - N/A   Unknown
10:00 AM -5.6 °F -23.2 °F -9.0 °F 85% 29.84 in - ESE 10.4 mph - N/A   Unknown
11:00 AM -6 °F - -10 °F 76% 29.85 in - ESE 8.1 mph - -  
11:00 AM -5.8 °F -21.2 °F -9.6 °F 84% 29.85 in - ESE 8.1 mph - N/A   Unknown
12:00 PM -8.5 °F -19.8 °F -12.6 °F 82% 29.85 in - East 4.6 mph - N/A   Unknown
1:00 PM -8.1 °F -19.4 °F -12.1 °F 83% 29.85 in - ESE 4.6 mph - N/A   Unknown
2:00 PM -7.6 °F - -11.7 °F 82% 29.86 in - SE 1.2 mph - N/A   Unknown
3:00 PM -8.1 °F - -12.1 °F 83% 29.88 in - Calm Calm - N/A   Unknown
4:00 PM -7.4 °F - -11.4 °F 83% 29.87 in - NNE 1.2 mph - N/A   Unknown
5:00 PM -7 °F - -10 °F 77% 29.86 in - West 2.3 mph - -  
5:00 PM -6.5 °F - -10.5 °F 83% 29.86 in - West 2.3 mph - N/A   Unknown
6:00 PM -6.3 °F - -10.1 °F 84% 29.86 in - West 1.2 mph - N/A   Unknown
7:00 PM -6.7 °F - -10.5 °F 84% 29.86 in - North 1.2 mph - N/A   Unknown
8:00 PM -5.6 °F - -9.4 °F 84% 29.87 in - NE 1.2 mph - N/A   Unknown
9:00 PM -6.0 °F - -9.8 °F 84% 29.86 in - SE 2.3 mph - N/A   Unknown
10:00 PM -5.6 °F -16.5 °F -9.4 °F 84% 29.87 in - WSW 4.6 mph - N/A   Unknown
11:00 PM -5 °F - -9 °F 74% 29.88 in - WSW 5.8 mph - -